TimeMST,TemperatureF,Dew PointF,Humidity,Sea Level PressureIn,VisibilityMPH,Wind Direction,Wind SpeedMPH,Gust SpeedMPH,PrecipitationIn,Events,Conditions,WindDirDegrees,DateUTC
12:56 AM,39.9,27.0,60,29.90,-9999.0,Calm,Calm,-,N/A,,Unknown,0,2012-11-17 07:56:00
1:56 AM,39.0,27.0,62,29.90,-9999.0,ENE,5.8,-,N/A,,Unknown,70,2012-11-17 08:56:00
2:56 AM,41.0,27.0,57,29.90,-9999.0,NE,8.1,-,N/A,,Unknown,40,2012-11-17 09:56:00
3:56 AM,39.9,27.0,60,29.91,-9999.0,North,6.9,-,N/A,,Unknown,10,2012-11-17 10:56:00
4:56 AM,37.0,26.1,65,29.94,-9999.0,NNW,4.6,-,N/A,,Unknown,330,2012-11-17 11:56:00
5:56 AM,30.9,25.0,79,29.97,-9999.0,West,5.8,-,N/A,,Unknown,260,2012-11-17 12:56:00
6:56 AM,36.0,27.0,70,29.98,-9999.0,NW,5.8,-,N/A,,Unknown,310,2012-11-17 13:56:00
7:56 AM,37.0,27.0,67,29.99,-9999.0,Calm,Calm,-,N/A,,Unknown,0,2012-11-17 14:56:00
8:56 AM,41.0,28.9,62,29.99,-9999.0,West,3.5,-,N/A,,Unknown,280,2012-11-17 15:56:00
9:56 AM,48.0,28.0,46,29.98,-9999.0,WSW,3.5,-,N/A,,Unknown,250,2012-11-17 16:56:00
10:56 AM,52.0,27.0,38,29.98,-9999.0,WSW,3.5,-,N/A,,Unknown,250,2012-11-17 17:56:00
11:56 AM,54.0,28.0,37,29.96,-9999.0,West,10.4,-,N/A,,Unknown,280,2012-11-17 18:56:00
12:56 PM,55.9,21.9,27,29.94,-9999.0,WNW,9.2,-,N/A,,Unknown,300,2012-11-17 19:56:00
1:56 PM,57.0,19.9,24,29.94,-9999.0,West,3.5,-,N/A,,Unknown,270,2012-11-17 20:56:00
2:56 PM,57.9,18.0,21,29.93,-9999.0,Calm,Calm,-,N/A,,Unknown,0,2012-11-17 21:56:00
3:56 PM,54.0,19.0,25,29.94,-9999.0,SE,4.6,-,N/A,,Unknown,140,2012-11-17 22:56:00
4:56 PM,50.0,21.9,33,29.95,-9999.0,ESE,10.4,-,N/A,,Unknown,120,2012-11-17 23:56:00
5:56 PM,48.0,21.9,36,29.96,-9999.0,ESE,11.5,-,N/A,,Unknown,120,2012-11-18 00:56:00
6:56 PM,43.0,21.9,43,29.96,-9999.0,ESE,4.6,-,N/A,,Unknown,120,2012-11-18 01:56:00
7:56 PM,43.0,21.9,43,29.94,-9999.0,East,4.6,-,N/A,,Unknown,90,2012-11-18 02:56:00
8:56 PM,39.9,21.0,47,29.94,-9999.0,Calm,Calm,-,N/A,,Unknown,0,2012-11-18 03:56:00
9:56 PM,37.0,21.9,54,29.93,-9999.0,SE,6.9,-,N/A,,Unknown,130,2012-11-18 04:56:00
10:56 PM,36.0,23.0,59,29.90,-9999.0,ESE,6.9,-,N/A,,Unknown,110,2012-11-18 05:56:00
11:56 PM,35.1,24.1,64,29.88,-9999.0,East,4.6,-,N/A,,Unknown,90,2012-11-18 06:56:00